CAPE
828 816 903 954 941 1310 1451 1646 1833 1827 1815 1785 1790 1841 1808 1766 1779 1836 1651 1512 1464 1255 1245 1117 1080 815 1001 1044 922 781 769 773 587 497 624 556 775 559 474 768 826 879 1197 1195 1623 1609 1490 1459 1327 1179 1231 1221 1296 870 746 927 809 213 143 594 789 572
959 941 1044 1033 895 1015 1242 1516 1623 1584 1711 1801 1881 1949 1874 1788 1972 1770 1714 1685 1765 1701 1652 1328 1674 1156 1289 764 738 859 817 820 743 631 686 757 680 780 584 642 672 704 1105 1237 1458 1614 1519 1541 1379 1263 1235 1241 1175 693 1086 1120 648 264 67 621 685 849
1252 1335 1124 1069 843 662 795 594 856 1722 1703 1771 1916 2065 1786 1743 1945 1810 1707 1598 2039 1743 1578 1636 1993 1800 1126 870 907 992 977 814 821 702 800 725 926 705 805 750 626 577 661 1077 1286 1329 1516 1126 1190 1388 1371 1162 740 654 890 1344 873 705 102 674 540 1021
1492 1568 1354 1046 662 459 554 457 502 1350 1697 1663 1840 1854 1757 1406 1596 1735 1671 1702 1853 1226 1528 2073 1629 1680 1842 1449 1130 1143 1126 1079 926 1004 918 917 919 1040 919 909 884 672 678 276 278 900 1280 1143 1024 1038 876 522 739 798 1144 609 376 201 319 901 372 1274
1639 1605 1474 1069 434 550 686 430 395 1294 1358 1417 1592 1475 1272 1377 1353 1352 1114 1543 1158 746 971 1192 1517 1506 1705 1650 1261 1381 1255 1161 1048 991 1140 810 959 672 921 401 21 320 50 26 59 305 717 934 1333 1247 1034 791 778 974 1166 505 766 416 333 599 570 1385
1573 1474 1478 1084 751 867 883 516 489 617 1145 1159 1232 1055 970 1147 1288 1353 1451 988 1148 717 939 1157 32 812 953 1421 1702 1663 1446 1275 1247 1037 1138 919 1196 777 634 478 448 193 0 0 23 26 97 592 1138 1360 1076 1163 1158 1234 665 411 306 506 348 672 1082 1630
1513 1501 1518 1101 947 1035 916 829 698 653 833 934 701 943 947 992 1097 1487 951 970 960 765 1086 1735 1167 1420 1456 1390 1491 1806 1958 1766 1571 1412 785 743 938 1308 829 667 658 386 2 1 0 65 282 210 271 101 452 792 956 663 421 437 353 375 554 1181 1109 1878
1454 1397 1309 1159 884 790 984 859 914 944 772 1002 806 667 752 854 1202 897 1368 1288 1041 1690 1548 1444 1486 1347 777 1088 1996 2073 1967 1815 1305 1563 2161 1360 1028 1546 1233 1056 876 320 155 180 35 25 0 1 405 276 179 237 201 666 575 604 427 635 863 1211 1097 1783
1157 1042 1060 859 563 580 1067 1078 901 864 1123 908 814 725 753 1010 719 734 1050 1177 1634 1987 1583 2236 1838 915 733 957 1438 2319 2279 1466 1614 1578 2108 2303 2138 2175 1792 1894 1493 898 609 348 266 278 138 14 114 509 529 491 385 194 705 599 464 559 493 1384 1759 1188
1124 719 644 648 771 1053 1138 959 744 968 922 794 973 1130 1029 766 920 783 1032 1455 1748 1882 2491 1727 1746 1323 1180 1150 1900 2277 2281 1904 2155 2423 2357 2787 2821 2500 2447 2373 1859 1230 792 991 820 727 746 329 91 32 33 365 458 406 196 434 751 802 532 1016 1376 1622
616 946 812 539 827 908 1078 866 627 790 468 861 1317 1110 856 936 1172 1223 1506 1893 1630 2225 2533 1995 1474 1339 1641 1741 2040 1602 1854 1776 1838 2832 2364 2085 2289 2202 2350 2017 1708 1693 1768 1510 1707 1386 982 829 594 349 368 126 169 461 432 255 774 822 838 948 1486 1618
1038 996 830 713 909 883 889 816 965 630 589 1207 1294 1059 1147 1605 1817 1751 1909 2192 2455 2408 2080 2212 2114 1376 1248 1208 1317 1384 1773 2073 2219 2367 2314 1944 1863 1923 1934 1623 1626 1809 1731 2007 1789 1476 1385 1086 662 409 381 350 314 321 512 982 339 514 1025 1061 1058 1698
693 1032 1286 621 783 789 842 923 909 754 1158 1480 1527 1690 1865 1932 2159 2241 2486 2296 2457 2249 2094 2280 2404 1916 1519 1281 1608 2446 2244 2093 2232 2207 2169 2139 2001 2042 1905 1766 2062 2104 2113 2037 1928 1691 1651 1518 1294 916 812 472 500 454 464 924 588 629 631 1105 1296 2306
993 937 1308 1136 1070 878 1261 1284 1229 1636 1885 2029 2249 2383 2400 2613 2424 2197 2292 2392 2338 2243 2047 2378 2006 1800 1974 1988 2082 2182 2278 2287 2415 2191 2382 2777 2399 2320 2164 1998 1911 1837 1907 1759 1528 1694 1637 1485 1269 1276 1149 954 797 750 618 577 625 690 1114 1055 1099 1208
1355 1386 1129 1204 1310 1672 1538 1614 1299 1334 1923 1928 1828 2095 2118 2138 2209 2577 2113 2162 2235 2293 2034 2196 2284 2299 1849 1930 1950 2028 2012 2364 2343 1984 2153 2617 2549 2180 1935 2001 1756 1788 1713 1744 1708 1692 1581 1574 1444 1381 1078 1633 1301 1290 1305 1113 810 832 963 1035 819 635
1369 1282 1569 2207 2272 2125 1572 1672 1679 1516 2207 1846 1623 1356 1705 1974 2112 2291 2745 2306 2090 2185 2273 2108 2046 2175 2430 2315 1637 2191 2239 2556 2260 2242 2309 2176 2003 1658 1610 1716 1606 1434 1528 1258 1114 1003 1151 1532 1558 1503 1453 1756 1541 1322 1392 1372 1311 1097 1074 1125 1026 903
2175 2356 1932 1844 1645 1480 1711 1901 2114 1960 1470 1891 2117 2118 1895 1586 1950 1651 2320 2318 2242 2338 2066 2076 2192 2319 2263 2314 2356 2266 2356 1974 2259 2072 2223 2536 1890 1702 1697 1566 1628 1580 1407 1278 1156 1187 1230 1210 1153 1212 1541 1658 1570 1634 1604 1404 1414 1511 1618 1406 1205 893
1221 1657 1595 1691 1598 1650 1397 1292 1268 1483 1618 1598 1782 1865 1633 1491 1395 1658 1427 1550 1985 2351 2448 2118 2238 2152 2393 2291 2160 1907 1992 2345 2128 2522 2354 2102 1814 1520 1558 1477 1660 1631 1403 1537 1380 1316 1374 1369 1414 1438 1420 1519 1547 1649 1693 1739 1493 1177 1254 1477 1304 1330
1229 1462 1405 1240 1649 1639 1647 1511 1524 1462 1423 1308 1307 1162 1580 1284 1048 889 1433 1652 2434 2667 2090 2158 1682 2417 2657 2275 2116 1562 2102 1823 2308 2247 1615 1480 1912 1383 1627 1518 1615 1419 1575 1425 1246 1245 1324 1361 1590 1437 1340 1371 1330 1371 1625 1864 1613 1402 1445 1490 1532 1184
1294 1441 1368 1712 1492 1335 1329 1394 1337 1370 1125 1134 985 1048 957 666 934 1128 1310 1373 2103 2340 1836 2239 2167 1760 2458 2084 1939 1980 2268 2095 2127 2278 2232 1834 1687 1420 1529 1419 1453 1378 1363 1414 1530 1421 1415 1400 1438 1388 1271 1429 1612 1678 1649 1697 1763 1642 1727 1574 1466 1476
1139 1077 1159 1218 1308 1087 1294 1135 1358 1488 1261 1059 1007 1225 1061 935 1161 741 1221 1471 1808 1657 1993 1990 1911 2264 2179 2229 2487 2310 2189 2247 1936 1506 1746 1683 1520 1412 1401 1600 1762 1694 1383 1338 1380 1340 1479 1510 1381 1215 1285 1178 1194 1430 1696 1743 1745 1871 1912 1679 1469 1418
982 957 892 1066 980 1090 1013 1082 1298 1056 1068 1004 1180 1000 982 1013 1157 1053 1307 1576 1887 1622 1578 1595 1595 1660 1661 1612 1641 1607 1530 1644 1478 1381 1690 1510 1377 1378 1404 1354 1427 1510 1503 1257 1268 1410 1545 1236 1199 1028 1020 980 848 1034 1501 2076 2017 1954 1470 1642 1622 1359
936 842 892 850 853 894 976 950 1050 885 905 841 971 1110 1285 1331 1185 1020 1533 1203 1298 1421 1065 921 832 892 1033 1030 1175 1122 1327 1466 1253 1162 1333 1326 1196 1310 1246 1240 1223 1493 1357 1227 1248 1355 1328 1284 1033 1018 1060 1043 766 632 1512 2120 1920 2039 2050 1576 1411 1289
818 869 952 828 986 886 866 871 752 964 709 971 1107 1165 942 778 731 1068 1130 998 794 888 683 614 495 397 532 692 731 730 878 934 932 939 928 889 840 906 1057 1084 994 1023 1075 966 977 1114 1138 1331 1174 743 761 752 714 746 639 1399 792 850 1196 1954 1686 1560
792 755 823 857 920 849 987 769 948 825 701 731 611 534 560 590 809 1066 1003 822 683 580 427 377 380 294 353 481 648 658 679 650 747 812 764 688 712 721 751 620 757 848 906 947 786 930 1041 1107 1256 1440 726 739 746 645 797 672 793 612 2206 1776 1830 2005
846 893 804 796 836 1045 960 948 722 834 936 820 584 506 519 690 1157 1112 937 497 380 243 209 260 100 80 122 156 319 292 275 257 301 377 326 532 492 335 214 221 301 390 589 772 826 796 857 901 934 1175 1379 693 750 590 671 682 652 621 592 615 1049 2011
803 790 829 884 807 931 617 586 752 773 726 702 649 773 869 1147 1092 904 603 396 290 145 40 132 71 22 16 6 37 11 4 2 42 40 59 71 78 96 24 47 73 120 245 272 378 486 569 658 654 846 881 1084 1234 855 766 676 663 648 624 644 667 908
781 832 768 723 686 752 668 702 783 578 740 724 805 835 843 941 879 678 488 237 183 94 31 10 11 4 8 10 5 0 0 0 0 1 3 1 0 1 1 0 6 40 92 102 139 152 119 105 155 318 307 419 483 600 823 784 834 684 550 472 603 622
745 673 657 751 760 738 658 564 506 411 555 653 635 979 796 811 733 559 317 200 142 128 61 11 3 1 0 0 1 2 5 4 2 0 0 0 0 0 1 0 0 0 6 18 14 7 3 2 4 20 12 14 30 129 180 302 573 656 549 359 425 544
621 620 642 578 530 539 611 521 346 440 673 807 961 972 868 690 525 308 207 138 62 42 10 11 7 7 10 5 8 2 2 4 4 0 0 0 0 0 1 0 0 0 6 3 4 1 0 0 1 4 6 6 5 2 0 0 13 31 82 317 437 406
529 524 566 756 527 875 1136 849 784 740 850 949 957 888 642 407 349 168 64 34 14 10 7 8 14 13 11 9 9 7 5 4 3 4 1 0 0 1 0 0 4 2 1 1 0 0 0 0 6 9 10 9 8 10 12 9 6 4 7 20 18 66
653 679 606 493 404 407 384 452 432 443 473 494 451 439 371 295 164 59 8 12 20 14 4 7 12 5 6 6 8 6 3 2 1 0 0 0 0 0 0 0 0 0 0 0 0 0 0 4 2 4 5 6 8 11 9 11 10 16 18 17 20 16
388 388 284 448 360 456 400 366 378 273 346 380 383 386 299 28 4 8 11 10 9 5 4 2 2 4 5 5 5 1 1 0 0 0 0 0 0 0 0 2 0 0 1 0 0 3 7 8 12 8 9 12 13 11 13 19 24 18 16 10 14 14
308 315 276 302 344 381 423 422 338 146 212 273 232 183 0 0 5 6 8 6 5 4 1 6 5 6 3 1 1 0 0 0 0 0 0 0 0 0 0 0 1 0 1 1 2 5 10 11 15 16 15 17 15 16 20 19 12 9 7 9 11 15
324 212 238 302 310 327 267 208 0 1 5 137 0 0 0 2 3 5 6 6 12 11 4 5 4 2 2 0 2 0 0 0 0 0 0 0 0 0 2 0 0 1 2 0 1 7 7 8 11 14 15 13 12 13 13 23 22 23 22 24 27 28
102 211 225 222 95 0 0 0 0 0 80 30 69 5 4 2 7 9 8 7 9 9 7 5 2 0 0 0 0 0 0 0 0 0 0 0 0 0 2 0 0 1 0 0 0 3 7 6 13 11 12 11 13 10 20 15 15 20 22 31 30 32
0 0 0 0 0 0 0 2 5 6 7 7 4 4 6 9 9 10 8 8 5 2 3 1 1 1 0 0 0 1 0 0 0 0 0 0 0 0 0 0 0 0 0 0 6 7 4 9 16 18 18 15 16 21 13 12 17 17 11 9 8 1
Wind_Speed
25 24 24 24 23 22 22 24 22 22 23 24 24 25 25 24 22 19 19 18 18 16 15 15 17 17 19 16 18 19 18 18 17 17 17 16 16 16 16 15 15 13 11 10 11 14 15 16 16 15 14 13 11 10 13 12 12 11 15 20 21 20
22 24 25 23 21 20 19 19 19 19 19 20 21 23 21 19 19 16 18 16 13 14 15 15 14 19 16 18 17 19 18 17 17 17 17 16 16 15 15 15 15 15 14 12 11 12 15 18 20 18 17 15 13 14 14 13 14 12 nan 19 21 22
23 24 25 23 20 19 18 14 18 18 16 18 18 20 18 19 16 17 17 15 12 11 14 16 14 16 16 18 17 18 18 18 18 18 18 17 16 16 16 15 15 14 14 13 11 12 14 17 18 22 20 16 15 15 15 17 14 13 13 21 21 27
23 23 23 21 20 18 16 15 15 16 15 13 16 16 15 16 15 16 17 14 12 10 10 14 14 15 18 15 15 16 18 19 19 20 21 18 18 18 18 17 16 16 13 12 12 12 14 18 19 19 19 18 17 16 15 16 17 17 17 23 23 29
22 21 22 21 19 17 17 17 15 17 14 14 14 14 14 14 15 13 15 12 11 12 7 14 12 12 12 14 13 12 12 13 14 14 19 16 18 18 18 16 nan 14 nan nan nan 14 13 13 19 20 20 20 19 18 16 16 17 15 14 21 25 30
20 20 20 20 20 18 18 17 16 16 16 13 14 14 14 14 15 13 13 12 13 12 7 12 nan 11 10 10 13 13 13 14 15 15 18 16 18 18 18 17 16 15 nan nan nan nan nan 16 19 18 19 21 21 19 17 16 15 19 17 21 26 32
20 21 19 19 21 19 16 17 18 16 17 13 15 16 14 15 15 12 12 15 15 13 10 11 14 9 8 7 11 12 12 13 15 15 15 16 15 20 19 18 18 17 nan nan nan nan 22 20 18 17 18 19 21 19 16 16 17 17 19 22 24 31
20 20 19 21 20 19 18 20 18 18 17 14 16 15 15 15 16 15 12 16 15 13 14 13 13 14 8 3 4 7 6 6 7 7 8 9 9 9 11 11 15 19 21 21 nan nan nan nan 21 21 16 13 14 18 18 17 15 15 16 23 23 26
22 20 21 22 20 21 22 21 20 20 18 16 17 14 16 17 17 16 15 16 16 12 13 15 17 14 5 5 5 6 7 6 7 10 8 6 8 9 10 11 10 9 10 13 15 18 19 nan 18 20 22 19 16 14 19 21 20 18 17 25 24 26
22 22 23 22 22 25 23 21 20 19 20 16 17 17 20 19 17 16 18 16 17 15 15 17 16 13 10 5 6 5 6 5 7 11 10 9 8 10 10 11 12 13 13 14 15 14 15 18 nan nan nan 22 22 20 17 20 22 22 22 25 25 27
22 25 23 24 26 26 22 19 18 21 20 17 21 22 20 19 16 18 19 18 16 17 16 17 16 12 8 6 5 4 5 5 4 6 8 8 9 10 11 12 13 14 14 13 14 14 16 18 17 16 17 17 21 24 22 19 18 20 23 23 26 25
26 25 23 26 25 23 20 19 20 23 19 19 23 21 19 19 18 19 19 18 17 16 16 14 15 12 9 8 5 4 5 7 6 8 8 9 10 10 11 11 13 14 15 14 14 14 14 14 16 17 18 17 16 19 22 23 23 20 20 24 24 26
27 24 23 26 25 22 21 23 24 23 21 23 22 22 22 20 19 20 19 17 16 16 15 13 11 12 12 10 7 6 5 6 8 10 10 9 10 12 12 12 13 13 14 14 15 16 15 15 16 16 17 18 18 17 18 22 24 23 23 24 24 25
28 24 27 27 24 21 24 27 26 25 24 24 24 24 23 22 20 19 18 15 14 14 15 13 12 10 11 10 9 9 8 7 8 9 9 11 11 11 11 11 12 13 14 15 15 16 17 16 17 18 18 17 19 18 19 19 22 25 25 25 23 24
26 27 28 26 23 27 28 30 28 22 24 25 25 24 23 21 20 17 17 15 12 12 14 14 12 12 9 8 9 8 8 7 9 9 10 12 11 12 12 11 12 12 13 13 15 15 16 17 17 16 16 19 19 19 19 19 19 20 24 28 27 23
25 28 29 31 30 31 31 27 26 24 26 24 25 24 23 21 19 19 17 14 11 11 13 13 12 12 11 8 8 9 9 8 10 9 11 11 11 11 12 13 13 14 13 13 14 14 16 17 18 16 18 18 19 20 21 21 22 21 21 22 24 24
30 34 34 35 32 31 28 28 28 26 25 24 27 25 24 20 20 21 17 12 10 12 11 12 11 13 13 9 8 9 10 10 10 11 10 12 11 12 12 12 13 14 14 14 14 13 15 15 15 17 19 20 21 21 22 21 22 22 21 22 23 23
32 32 34 34 33 29 30 29 26 23 24 26 28 26 25 21 22 24 15 12 11 11 13 9 10 12 14 9 9 12 11 11 11 12 11 10 10 10 13 14 13 14 14 15 15 15 14 15 16 16 17 18 19 21 22 22 22 21 22 21 20 22
30 31 34 34 33 33 31 30 28 25 25 26 29 27 22 20 20 20 18 14 13 7 11 7 8 12 11 11 13 15 10 12 12 12 14 11 11 12 14 14 13 14 15 15 14 16 15 15 16 15 15 17 19 19 21 23 23 23 23 22 22 22
35 35 35 33 33 33 29 29 29 27 26 28 26 22 19 17 19 16 12 8 5 7 9 8 12 11 9 10 12 10 12 12 12 13 14 14 13 13 14 14 15 13 13 15 15 15 16 14 15 15 16 17 18 19 21 22 22 21 22 21 20 21
36 37 30 31 34 32 31 28 28 28 30 25 21 21 20 19 16 8 5 8 11 11 8 10 10 11 10 11 9 10 11 11 11 11 13 13 13 14 15 16 16 15 14 14 16 16 17 17 14 15 17 17 17 18 18 22 22 22 23 22 21 21
35 30 27 32 33 33 30 28 27 27 26 23 23 22 18 16 17 11 5 10 11 12 12 11 11 12 12 11 10 10 10 11 10 12 12 12 13 14 14 16 17 16 15 14 15 17 17 18 17 15 13 14 15 17 18 22 23 22 22 22 22 22
33 32 34 36 31 24 25 27 29 25 26 24 22 23 22 21 18 7 8 11 12 12 12 12 11 12 12 12 10 10 10 11 12 13 12 12 13 15 16 15 16 18 16 17 16 17 18 22 18 16 15 16 17 15 19 22 21 20 21 21 21 21
33 35 36 33 26 26 27 27 24 23 24 24 24 22 20 18 15 5 12 13 13 13 14 13 13 13 12 12 10 11 11 11 13 13 13 13 13 14 14 15 16 16 16 16 16 16 17 20 23 20 19 19 17 19 16 22 17 17 19 22 21 20
33 36 36 33 31 29 28 25 23 25 25 25 22 20 18 14 4 9 12 12 13 14 15 14 13 13 12 11 11 12 11 12 13 13 13 14 14 14 14 15 16 16 17 17 16 16 17 18 21 24 23 20 20 22 22 18 15 14 23 22 20 21
30 34 34 34 31 30 29 27 25 24 24 23 22 20 13 6 9 10 12 13 16 16 16 15 13 nan 13 12 13 13 13 13 14 13 13 14 16 16 16 16 17 17 16 18 17 17 17 17 18 20 26 28 26 22 18 19 20 18 20 18 18 22
29 31 31 31 30 29 26 22 19 20 19 20 18 11 8 11 10 12 14 15 16 16 nan 15 nan nan nan nan nan nan nan nan nan nan nan nan nan nan nan nan nan 18 18 18 18 18 18 17 18 21 21 21 24 25 23 21 22 18 14 20 23 19
31 29 30 29 26 26 26 23 23 20 17 18 10 8 10 12 13 14 15 16 17 nan nan nan nan nan nan nan nan nan nan nan nan nan nan nan nan nan nan nan nan nan nan 21 20 21 20 20 19 19 21 20 19 20 23 23 24 22 19 15 13 21
32 30 28 30 30 27 25 25 22 18 16 8 4 10 12 14 14 15 15 17 18 17 nan nan nan nan nan nan nan nan nan nan nan nan nan nan nan nan nan nan nan nan nan nan nan nan nan nan nan nan nan nan nan 21 21 22 22 25 22 18 17 18
31 30 29 30 30 25 21 20 18 17 10 11 12 14 14 15 14 14 16 17 nan nan nan nan nan nan nan nan nan nan nan nan nan nan nan nan nan nan nan nan nan nan nan nan nan nan nan nan nan nan nan nan nan nan nan nan nan nan nan 22 20 18
27 27 27 26 22 19 19 20 19 21 18 15 13 13 13 15 14 16 nan nan nan nan nan nan nan nan nan nan nan nan nan nan nan nan nan nan nan nan nan nan nan nan nan nan nan nan nan nan nan nan nan nan nan nan nan nan nan nan nan nan nan nan
23 25 25 24 23 25 25 26 24 23 19 16 16 16 16 17 18 nan nan nan nan nan nan nan nan nan nan nan nan nan nan nan nan nan nan nan nan nan nan nan nan nan nan nan nan nan nan nan nan nan nan nan nan nan nan nan nan nan nan nan nan nan
25 25 27 28 29 30 29 25 21 20 19 16 16 16 16 nan nan nan nan nan nan nan nan nan nan nan nan nan nan nan nan nan nan nan nan nan nan nan nan nan nan nan nan nan nan nan nan nan nan nan nan nan nan nan nan nan nan nan nan nan nan nan
26 27 29 32 33 32 27 22 20 19 18 17 18 19 nan nan nan nan nan nan nan nan nan nan nan nan nan nan nan nan nan nan nan nan nan nan nan nan nan nan nan nan nan nan nan nan nan nan nan nan nan nan nan nan nan nan nan nan nan nan nan nan
26 28 31 32 29 26 23 21 nan nan nan 18 nan nan nan nan nan nan nan nan nan nan nan nan nan nan nan nan nan nan nan nan nan nan nan nan nan nan nan nan nan nan nan nan nan nan nan nan nan nan nan nan nan nan nan nan nan nan nan nan nan nan
25 27 28 27 nan nan nan nan nan nan nan nan nan nan nan nan nan nan nan nan nan nan nan nan nan nan nan nan nan nan nan nan nan nan nan nan nan nan nan nan nan nan nan nan nan nan nan nan nan nan nan nan nan nan nan nan nan nan nan nan nan nan
nan nan nan nan nan nan nan nan nan nan nan nan nan nan nan nan nan nan nan nan nan nan nan nan nan nan nan nan nan nan nan nan nan nan nan nan nan nan nan nan nan nan nan nan nan nan nan nan nan nan nan nan nan nan nan nan nan nan nan nan nan nan
Wind_Direction
283 285 279 274 272 274 277 284 290 300 305 308 309 310 313 317 321 320 318 320 325 328 329 326 331 324 328 325 316 323 329 335 345 352 355 359 359 3 2 2 1 7 10 7 358 355 355 358 6 15 27 32 37 7 2 8 3 336 339 314 313 318
279 282 277 271 269 269 277 288 287 293 298 305 310 313 313 313 320 314 319 320 331 334 332 327 336 325 328 319 325 329 330 335 343 351 358 360 5 7 11 10 13 16 17 19 14 354 354 2 8 11 19 28 12 5 5 9 357 347 nan 312 311 320
277 274 278 271 267 271 280 282 290 293 296 307 310 310 313 316 317 315 320 326 332 340 334 323 327 331 319 327 323 333 334 338 344 350 358 3 5 11 14 19 20 24 25 25 13 7 360 349 352 6 9 6 1 6 6 6 343 344 340 320 314 324
278 278 273 268 268 273 277 277 281 286 291 294 301 307 313 312 314 316 320 325 335 324 311 302 307 308 314 312 321 333 341 343 348 352 357 359 7 12 18 23 27 27 21 15 10 7 10 349 346 345 347 355 358 5 11 350 347 353 347 325 323 330
275 274 271 270 272 274 276 277 281 283 284 286 292 299 302 307 306 312 309 316 314 302 312 306 308 308 314 319 319 330 337 346 345 351 359 0 358 2 5 10 nan 17 nan nan nan 9 9 355 344 341 348 352 355 2 4 349 352 351 338 326 326 334
272 269 268 271 273 273 276 275 276 278 281 282 293 290 290 299 300 310 314 301 292 298 306 301 nan 308 316 325 323 333 344 348 347 352 353 5 357 353 353 3 7 10 nan nan nan nan nan 5 346 351 349 350 354 357 352 345 350 343 337 332 330 336
267 265 268 268 269 269 269 267 270 271 273 276 277 287 299 301 307 311 297 301 295 303 313 297 306 309 308 316 327 337 343 346 348 347 352 360 359 342 349 356 357 4 nan nan nan nan 12 4 355 353 354 356 353 350 346 349 345 341 342 332 332 335
265 265 263 266 266 267 264 265 262 265 264 267 275 284 287 299 292 288 298 294 303 313 309 306 294 263 230 225 256 267 284 297 302 299 342 349 329 335 341 349 345 354 5 8 nan nan nan nan 352 352 357 4 354 349 348 345 340 332 331 322 328 338
264 264 264 263 261 255 253 257 257 260 258 259 262 273 278 278 283 293 299 303 311 310 308 285 279 293 319 292 272 276 281 298 332 323 347 329 328 332 341 338 339 345 355 358 357 357 351 nan 350 346 351 357 357 355 348 346 344 336 333 326 334 332
270 266 260 257 252 252 251 252 258 264 265 265 264 265 269 275 283 294 299 310 310 311 292 288 288 295 294 315 305 292 297 318 340 332 344 337 335 334 335 340 341 345 355 344 343 346 344 347 nan nan nan 349 348 352 354 344 340 339 339 333 333 332
262 257 257 255 251 254 256 257 257 257 263 260 258 259 267 276 287 292 300 303 306 301 302 298 296 298 298 303 300 292 311 328 333 327 326 336 332 338 342 340 341 337 337 340 338 338 344 341 344 354 348 349 345 346 348 344 338 338 338 340 332 334
250 248 251 257 257 261 263 261 257 257 260 256 256 259 264 269 272 279 288 293 296 304 303 304 300 305 311 304 300 308 331 331 328 334 330 334 336 337 336 340 336 334 339 339 334 331 332 336 340 345 340 346 342 336 342 330 342 345 342 340 338 336
253 249 245 254 256 258 259 258 254 257 256 253 255 254 256 261 266 277 284 294 303 309 308 303 301 305 307 307 333 315 323 313 327 329 330 335 338 337 341 336 328 326 327 331 328 333 334 333 333 336 337 338 336 337 332 335 340 341 346 344 343 335
247 246 246 250 255 255 254 254 252 251 254 253 249 250 252 254 263 271 280 291 301 307 305 298 292 284 285 300 307 312 323 326 321 317 323 331 332 331 327 329 324 327 327 322 325 326 325 328 332 331 330 336 328 328 330 336 334 343 343 338 339 342
247 248 249 251 253 250 250 251 250 253 255 252 251 249 250 254 257 265 275 281 292 298 297 295 285 280 280 297 305 309 304 308 307 312 324 322 322 322 327 318 319 316 314 313 316 319 321 323 323 325 322 317 321 324 326 326 330 336 335 338 342 339
252 252 248 246 241 246 249 249 257 253 252 255 254 252 251 252 256 257 262 275 290 294 288 285 284 284 273 262 271 295 302 299 295 316 310 310 318 322 318 323 320 319 317 316 314 314 314 316 317 319 323 319 322 326 327 329 329 332 329 326 327 340
245 241 246 242 239 244 248 250 251 251 256 254 250 246 246 243 244 251 248 259 277 279 279 278 280 278 270 266 272 273 283 288 297 299 300 308 319 319 312 312 314 315 318 317 313 313 311 310 312 316 318 321 324 324 325 326 324 323 323 327 330 331
244 244 245 248 249 247 247 246 248 245 245 246 251 251 246 242 242 237 230 240 242 245 253 264 272 271 284 286 270 266 271 278 293 293 294 303 306 319 318 315 317 317 314 316 318 313 312 313 315 314 315 316 318 321 324 324 325 325 326 328 330 328
256 251 250 247 247 247 244 250 256 251 244 243 243 240 234 243 242 228 213 205 231 235 277 275 256 263 263 271 279 282 298 296 295 294 305 318 323 315 307 306 312 314 314 318 320 318 320 319 315 314 316 318 318 321 322 324 324 322 323 324 325 327
249 249 248 249 246 245 244 246 249 250 254 246 235 231 229 224 234 210 209 211 260 252 251 255 273 270 265 263 280 291 291 292 296 321 319 319 315 311 309 311 308 311 316 320 321 322 317 314 320 324 322 320 322 324 325 323 320 321 320 320 322 323
244 242 244 247 244 243 244 242 245 250 250 245 245 236 235 229 241 237 215 281 281 283 287 279 276 276 279 282 285 292 297 312 316 309 306 308 313 310 310 307 309 316 319 319 320 317 317 317 321 323 318 316 313 316 325 324 324 324 321 322 323 322
253 255 255 251 245 243 240 241 242 244 246 247 250 256 250 252 250 227 252 274 256 263 264 263 265 271 269 269 272 282 288 291 293 293 299 302 304 305 304 309 310 312 314 317 319 315 315 309 316 310 306 304 312 316 318 314 319 322 323 324 324 321
259 258 251 248 245 249 242 236 233 231 233 236 239 239 239 237 238 245 248 248 249 252 255 255 253 262 270 270 276 278 285 289 291 291 295 300 300 304 303 307 310 313 317 317 319 316 313 312 317 310 317 319 307 299 307 307 309 315 320 323 322 324
263 253 253 253 242 232 231 229 226 230 229 230 230 236 234 219 215 216 242 240 245 250 249 253 254 255 263 263 266 273 275 279 282 284 289 295 298 295 300 302 298 302 307 308 307 311 311 309 309 306 307 305 314 312 311 308 298 308 321 320 323 329
262 252 255 256 246 237 233 227 226 226 222 219 217 220 219 213 215 240 244 243 251 255 255 254 255 258 260 262 266 270 275 279 282 286 291 294 297 293 293 295 292 298 296 303 305 310 313 308 311 313 309 307 308 311 305 305 294 312 310 310 322 325
262 252 255 260 251 244 234 224 220 226 225 217 211 212 214 262 258 249 252 253 249 252 257 256 258 nan 261 262 264 265 268 275 281 284 287 291 291 291 288 286 287 292 295 298 304 308 307 305 300 307 311 314 316 316 311 308 307 311 307 316 318 318
272 264 262 263 257 248 246 239 231 227 222 224 225 214 239 249 256 263 264 261 261 261 nan 261 nan nan nan nan nan nan nan nan nan nan nan nan nan nan nan nan nan 292 293 295 295 300 297 299 298 301 296 307 317 321 323 315 311 311 309 308 308 310
274 271 266 263 260 253 249 244 239 231 221 217 207 251 263 260 258 261 266 268 265 nan nan nan nan nan nan nan nan nan nan nan nan nan nan nan nan nan nan nan nan nan nan 295 294 293 292 293 294 300 295 298 295 305 312 319 318 315 316 309 303 308
272 268 264 260 254 251 242 235 233 228 226 248 285 268 257 254 259 262 268 266 270 273 nan nan nan nan nan nan nan nan nan nan nan nan nan nan nan nan nan nan nan nan nan nan nan nan nan nan nan nan nan nan nan 297 296 296 300 305 304 306 310 299
271 266 262 255 248 243 237 230 226 238 266 287 272 257 256 263 262 264 265 266 nan nan nan nan nan nan nan nan nan nan nan nan nan nan nan nan nan nan nan nan nan nan nan nan nan nan nan nan nan nan nan nan nan nan nan nan nan nan nan 298 300 296
273 262 256 256 247 229 227 239 251 259 261 263 258 261 267 264 265 261 nan nan nan nan nan nan nan nan nan nan nan nan nan nan nan nan nan nan nan nan nan nan nan nan nan nan nan nan nan nan nan nan nan nan nan nan nan nan nan nan nan nan nan nan
273 260 249 241 232 230 243 258 262 262 256 245 253 256 253 260 260 nan nan nan nan nan nan nan nan nan nan nan nan nan nan nan nan nan nan nan nan nan nan nan nan nan nan nan nan nan nan nan nan nan nan nan nan nan nan nan nan nan nan nan nan nan
266 258 247 242 243 251 260 264 264 263 258 251 251 253 257 nan nan nan nan nan nan nan nan nan nan nan nan nan nan nan nan nan nan nan nan nan nan nan nan nan nan nan nan nan nan nan nan nan nan nan nan nan nan nan nan nan nan nan nan nan nan nan
262 257 254 254 258 262 263 261 255 253 254 251 249 244 nan nan nan nan nan nan nan nan nan nan nan nan nan nan nan nan nan nan nan nan nan nan nan nan nan nan nan nan nan nan nan nan nan nan nan nan nan nan nan nan nan nan nan nan nan nan nan nan
267 265 263 263 263 261 255 248 nan nan nan 251 nan nan nan nan nan nan nan nan nan nan nan nan nan nan nan nan nan nan nan nan nan nan nan nan nan nan nan nan nan nan nan nan nan nan nan nan nan nan nan nan nan nan nan nan nan nan nan nan nan nan
274 271 269 268 nan nan nan nan nan nan nan nan nan nan nan nan nan nan nan nan nan nan nan nan nan nan nan nan nan nan nan nan nan nan nan nan nan nan nan nan nan nan nan nan nan nan nan nan nan nan nan nan nan nan nan nan nan nan nan nan nan nan
nan nan nan nan nan nan nan nan nan nan nan nan nan nan nan nan nan nan nan nan nan nan nan nan nan nan nan nan nan nan nan nan nan nan nan nan nan nan nan nan nan nan nan nan nan nan nan nan nan nan nan nan nan nan nan nan nan nan nan nan nan nan